Wind_Speed
24 24 25 25 24 24 24 25 26 26 23 21 20 19 20 23 23 17 14 9 3 9 8 11 13 13 12 14 11 11 12 14 18 18 7 14 14 5 7 13 6 2 14 26 24
25 26 26 26 26 26 26 25 25 25 23 21 19 18 18 20 21 19 14 12 13 11 10 13 13 13 12 13 9 12 12 19 15 11 9 14 15 9 13 12 12 17 22 27 25
27 27 27 27 27 28 28 27 26 25 21 20 18 18 16 15 12 5 3 9 12 13 13 13 14 11 17 17 15 15 17 13 2 8 6 13 18 15 14 13 15 18 22 22 23
29 28 29 29 29 30 29 29 26 23 21 21 18 16 15 9 5 5 1 4 3 8 13 14 13 16 17 19 17 18 13 11 5 4 13 10 9 11 14 13 15 18 20 20 19
29 30 30 31 32 32 31 30 25 21 21 20 16 10 8 7 13 2 1 2 3 7 13 13 14 16 20 18 19 13 20 6 3 9 13 16 12 7 10 11 15 17 17 18 16
31 31 32 32 33 34 33 30 23 20 19 16 11 3 7 14 2 2 3 7 8 8 12 13 12 12 18 16 17 14 21 10 11 11 7 15 14 14 12 13 13 16 17 15 14
32 33 33 34 36 36 34 25 20 19 12 10 3 4 9 16 4 6 6 9 9 10 9 10 10 10 7 16 16 13 14 10 13 14 10 13 16 12 18 16 17 18 17 16 14
33 34 36 38 38 35 27 20 18 11 7 4 0 6 8 4 8 10 12 10 11 10 9 7 9 13 18 15 6 15 17 16 19 16 13 18 19 14 19 21 21 19 16 15 14
35 36 39 42 40 29 23 18 13 5 4 2 3 7 8 2 9 7 11 12 12 11 11 7 10 14 14 17 14 16 19 23 19 20 12 19 15 17 18 19 20 18 17 16 14
37 39 40 42 35 21 20 10 8 6 3 6 11 7 8 6 1 5 8 13 9 10 10 13 9 12 16 16 21 20 22 22 25 18 20 21 16 18 17 19 18 18 17 16 15
39 41 41 38 27 18 20 7 6 7 12 12 1 11 2 2 6 9 9 12 13 10 15 16 14 19 22 23 24 25 25 26 27 21 22 22 22 19 18 17 18 17 17 16 15
44 44 43 30 18 13 10 5 8 6 11 15 19 19 19 7 9 11 10 12 15 16 16 16 19 19 20 22 22 26 27 24 22 16 18 21 22 16 18 19 18 18 17 17 16
46 48 32 26 6 8 9 9 11 8 7 5 9 11 12 12 11 14 15 17 14 17 17 19 17 14 22 21 19 22 26 21 25 14 12 14 19 17 18 17 16 16 16 16 16
47 43 27 17 4 10 4 12 13 3 5 9 6 4 6 7 8 24 17 16 15 17 18 19 17 17 13 20 19 23 22 24 26 15 15 20 16 21 22 20 20 20 19 18 17
47 31 20 15 10 6 11 13 10 3 4 4 7 4 3 10 5 11 21 17 18 16 12 17 13 16 22 22 19 24 22 22 26 23 15 19 18 16 23 21 27 24 22 20 18
48 22 19 12 7 10 15 13 4 3 6 4 3 2 7 11 11 5 10 16 11 20 18 19 13 14 17 16 20 19 19 21 22 21 18 20 20 21 25 28 26 25 23 22 21
44 14 13 13 12 19 14 6 4 4 3 3 4 4 9 11 9 10 13 16 14 13 19 20 22 21 13 16 16 18 16 14 18 17 17 26 26 20 18 29 29 28 26 25 23
30 10 9 9 18 13 9 5 4 1 5 9 10 14 15 10 10 13 15 15 21 22 15 17 19 23 20 24 21 24 20 15 23 18 22 28 28 28 26 24 28 27 27 25 24
25 6 13 19 18 10 7 1 3 9 10 11 17 15 14 12 5 10 13 17 17 19 20 16 21 19 13 20 20 24 22 26 26 24 21 23 21 33 19 25 18 21 27 28 26
22 8 16 25 17 9 5 2 2 6 13 11 8 6 11 10 4 11 13 13 12 17 18 21 22 19 8 14 20 26 21 19 17 26 28 26 28 19 25 22 24 22 25 27 26
12 5 20 22 15 6 2 2 5 8 9 8 13 13 13 14 13 13 13 10 15 14 17 16 17 22 17 21 19 19 21 21 19 20 18 21 22 23 21 25 25 23 24 26 28
13 4 22 24 4 3 1 3 5 9 6 8 8 10 10 14 14 14 15 11 15 16 13 12 8 17 27 19 17 23 24 25 16 22 18 21 20 18 13 12 25 23 24 27 27
7 4 14 14 4 4 6 3 4 8 9 6 5 5 12 13 9 12 16 4 14 15 14 13 7 14 19 18 23 21 24 22 23 21 23 19 21 22 17 10 18 21 21 23 25
5 4 5 7 6 6 7 4 6 4 5 9 6 8 11 13 13 11 16 8 10 16 13 13 11 16 16 21 17 18 23 23 24 17 20 23 26 24 26 14 9 14 17 24 27
6 3 3 4 4 7 6 4 7 6 5 10 2 4 7 7 15 18 12 18 18 15 9 10 11 17 20 25 25 24 24 25 26 26 24 25 31 24 23 15 16 13 16 23 28
3 3 7 10 6 7 0 5 5 7 8 9 8 10 11 13 14 20 21 18 15 12 9 8 10 16 20 21 22 25 25 25 22 29 28 28 28 23 26 23 15 17 16 23 26
4 3 4 7 6 5 5 5 9 11 5 7 9 13 14 13 15 19 19 20 21 22 20 19 13 13 20 19 23 24 27 29 24 22 22 25 24 22 22 19 9 12 18 23 25
Wind_Direction
355 351 348 345 343 339 336 336 336 336 335 333 331 330 328 326 317 304 258 281 244 263 278 268 250 250 239 251 244 249 268 239 239 239 169 149 181 86 57 131 122 191 133 121 140
357 353 349 346 342 338 335 332 332 333 334 332 330 328 326 328 314 275 265 255 258 253 274 255 253 230 240 239 215 232 236 250 241 251 124 173 177 158 152 137 147 103 104 130 145
354 350 347 344 341 337 333 331 329 329 330 327 325 324 324 329 282 119 249 259 249 241 255 269 272 263 256 243 218 227 252 290 187 287 268 189 199 168 172 172 154 147 140 147 151
351 348 344 341 339 337 332 328 325 326 324 320 315 316 320 304 296 79 334 330 223 208 241 250 243 243 241 241 230 233 238 267 274 224 242 175 120 194 188 124 144 146 148 151 156
349 347 343 340 337 335 331 326 323 321 320 316 309 309 326 241 260 107 348 293 231 229 235 237 245 240 245 244 241 224 255 200 243 230 238 162 173 125 114 121 135 145 151 155 156
348 344 341 337 334 332 328 325 322 318 317 315 308 279 261 261 333 250 253 246 252 235 240 235 249 266 269 267 255 227 240 191 210 209 173 178 146 150 157 152 150 160 156 154 151
346 342 339 335 332 329 326 323 317 316 313 317 286 218 260 250 312 259 256 251 247 253 266 241 262 256 234 256 253 266 245 209 204 177 185 166 181 224 155 157 163 165 159 152 152
346 342 338 333 331 330 326 319 311 307 312 325 276 248 267 258 263 264 244 240 235 242 246 277 263 260 263 263 275 221 226 210 209 189 181 190 200 146 166 167 170 164 156 157 161
346 343 338 334 334 332 325 320 308 297 293 210 227 240 267 201 238 245 227 230 214 229 236 252 249 245 236 238 231 215 227 223 205 192 179 207 229 155 179 176 172 169 166 165 153
344 341 337 333 335 330 328 332 284 270 261 240 256 264 241 248 175 254 233 228 223 221 224 225 230 237 225 220 227 222 223 240 224 178 205 203 233 162 186 187 177 176 173 167 166
342 340 336 335 337 342 342 317 225 197 220 245 93 262 227 335 247 223 205 211 223 229 227 205 226 229 231 227 247 252 239 222 248 174 198 219 217 170 183 189 186 184 175 174 166
341 341 338 340 339 5 348 36 37 330 297 259 250 261 269 277 293 233 193 204 208 228 220 237 231 251 248 250 239 245 254 254 233 163 183 216 213 167 190 197 190 187 182 174 157
342 342 344 347 26 13 42 37 347 325 262 260 234 258 246 224 241 247 193 214 221 231 237 235 234 240 241 246 245 248 240 245 251 149 202 227 219 176 194 204 197 200 192 180 172
344 345 349 356 334 343 67 352 346 330 268 152 184 176 183 224 244 233 206 227 231 243 238 250 242 247 242 250 240 243 239 247 255 180 210 218 225 191 193 204 202 199 199 185 182
346 345 355 6 334 7 330 328 333 256 300 103 135 88 165 220 2 191 215 221 237 220 247 230 228 245 231 238 242 248 258 249 242 251 226 205 226 224 189 204 209 201 197 188 187
347 344 4 2 307 345 321 313 261 239 242 143 128 203 213 214 246 105 205 237 241 252 236 252 260 242 253 252 241 263 251 254 258 236 234 223 216 222 211 213 211 203 196 192 189
345 345 356 358 336 324 321 260 243 196 122 94 8 310 303 276 222 222 199 212 220 221 239 240 239 247 226 252 242 221 236 227 232 229 231 209 234 225 230 209 209 200 195 194 189
348 346 349 340 335 327 297 225 212 295 359 357 312 300 273 277 240 239 235 228 215 251 261 240 233 224 226 226 244 214 224 231 231 226 231 228 227 236 220 254 204 196 191 193 188
350 323 0 340 337 321 262 217 297 357 359 321 309 260 263 245 268 305 243 251 249 216 242 262 257 266 228 224 223 241 219 235 246 248 243 236 235 239 238 220 186 196 187 193 187
335 310 14 340 331 284 263 298 360 17 333 312 295 335 306 305 328 286 254 29 345 328 317 252 263 269 250 235 241 233 244 227 236 244 244 241 246 232 224 222 198 193 193 190 186
333 298 6 342 312 258 127 296 341 334 338 322 331 310 300 305 302 284 277 68 13 336 323 294 270 252 255 233 240 225 236 247 242 237 251 251 241 238 244 196 212 199 196 189 190
339 2 353 343 49 12 16 355 310 346 345 326 310 328 322 313 300 280 273 42 16 351 334 334 293 257 246 249 250 250 248 227 240 235 241 248 254 254 310 243 195 214 193 191 188
351 323 12 5 51 27 335 281 341 351 5 352 319 352 318 301 290 268 269 75 23 359 359 343 273 253 246 241 243 247 248 251 232 245 250 240 242 254 264 296 191 196 203 181 183
359 341 352 29 12 360 350 330 326 41 314 334 315 318 333 316 275 275 294 304 351 324 330 302 259 264 260 251 246 230 234 253 254 227 241 251 255 234 244 215 254 198 195 175 182
2 341 1 329 349 336 354 312 325 351 346 307 218 274 345 308 316 281 304 324 312 300 286 331 276 279 281 284 281 285 282 228 239 247 238 236 246 250 254 213 225 229 202 187 189
7 339 335 292 310 294 114 293 336 334 327 308 304 334 308 288 280 287 298 295 294 297 286 313 280 297 290 281 279 276 271 271 244 232 246 249 248 244 256 265 229 202 200 194 195
331 332 296 294 288 295 300 321 294 310 303 269 296 304 294 313 322 306 293 281 273 278 275 283 267 265 270 281 272 256 248 255 261 263 245 247 253 254 248 246 279 195 201 196 192
Height
842 839 835 831 828 824 819 815 810 806 802 799 795 792 788 784 779 777 772 767 767 766 766 765 762 760 757 752 745 741 755 744 732 728 720 716 729 725 732 746 748 748 748 766 787
841 838 834 830 826 821 817 813 808 804 800 797 794 791 788 784 780 772 766 764 765 766 766 760 754 751 751 745 742 748 749 733 711 708 718 722 723 742 744 756 759 758 768 779 787
840 837 833 829 824 819 814 809 805 802 798 795 793 790 788 785 777 756 762 762 762 764 765 761 757 751 750 738 738 740 748 721 718 716 714 728 729 734 741 758 758 766 769 777 782
840 835 831 826 821 816 811 806 802 798 795 793 791 789 786 786 772 760 762 762 760 762 763 759 754 753 750 744 732 744 729 724 722 725 724 728 733 747 738 744 751 762 768 772 776
840 835 829 824 818 813 808 802 798 795 793 790 789 788 786 776 763 761 763 763 762 761 759 754 752 747 747 735 729 736 730 728 731 732 723 727 747 757 758 754 757 763 768 772 776
840 834 828 822 816 809 804 799 795 792 790 788 786 786 786 776 762 762 763 763 761 759 754 753 748 741 739 736 732 725 729 732 734 735 731 742 751 760 766 764 768 770 770 774 777
839 833 827 820 813 806 800 795 792 790 788 786 785 786 781 765 761 761 761 760 758 757 752 751 748 750 738 742 728 730 739 736 736 736 742 742 768 762 762 764 771 771 773 777 782
838 832 824 817 810 802 796 792 789 787 786 785 785 786 771 760 760 759 759 758 758 757 756 754 753 749 744 733 736 742 738 748 733 734 736 746 752 757 762 764 766 768 774 781 786
838 830 822 813 805 798 793 790 787 785 785 784 785 783 764 758 757 754 755 754 754 755 755 755 753 749 743 748 749 737 742 740 730 728 737 747 746 756 759 760 763 767 773 778 785
837 829 820 811 803 796 791 788 786 785 784 785 783 783 759 751 752 753 753 753 752 751 752 753 749 748 745 741 747 738 740 727 729 732 737 746 743 754 759 758 760 765 770 776 782
835 827 818 808 802 796 789 785 784 780 780 762 755 753 752 753 754 750 750 752 750 749 753 745 751 746 738 732 726 721 719 724 711 707 732 738 743 756 758 757 763 764 767 773 779
833 824 815 807 801 798 793 789 799 802 780 760 757 754 752 755 756 746 748 751 749 751 743 745 747 735 728 725 725 726 725 716 705 702 725 733 736 752 761 758 758 761 767 771 779
831 821 812 806 802 802 800 802 802 800 784 749 751 750 750 754 752 743 744 742 743 748 741 742 731 726 733 729 734 728 729 726 718 723 728 730 742 751 758 759 759 761 764 769 779
830 821 813 806 806 804 801 804 802 801 771 745 749 746 750 750 747 739 735 739 740 744 736 733 726 732 738 739 734 739 721 724 718 729 746 732 753 743 752 761 760 760 762 766 775
831 821 815 811 811 804 809 805 803 802 778 741 744 746 744 746 737 730 733 736 740 737 738 734 734 735 735 734 731 734 722 721 721 719 734 733 746 728 737 755 749 752 758 763 772
830 823 817 814 810 811 808 805 804 785 779 743 740 743 744 740 737 732 736 735 732 738 729 732 717 727 727 724 727 723 728 727 720 722 738 736 740 725 721 728 739 745 751 760 769
828 823 820 817 816 811 807 802 786 793 743 748 750 746 744 738 734 734 739 743 743 750 743 732 727 722 728 735 725 726 743 749 747 732 734 714 725 712 690 698 714 729 742 752 762
826 823 821 818 815 811 806 788 797 759 758 756 759 754 748 730 729 730 733 734 730 731 728 725 729 716 714 724 725 721 730 738 749 735 724 703 711 690 684 685 690 705 728 743 755
827 823 821 817 813 811 799 786 785 777 788 781 762 748 740 731 738 730 729 727 720 719 737 729 722 697 700 706 719 719 721 712 723 709 710 697 685 680 676 682 690 701 717 732 746
829 823 819 814 811 808 791 800 790 806 800 786 773 754 753 736 744 742 731 736 735 724 718 718 730 709 706 707 705 712 700 722 716 733 727 701 693 687 680 681 683 698 707 721 740
830 815 821 815 809 797 802 799 810 808 806 797 782 775 770 761 754 753 740 760 761 750 740 729 725 720 709 710 712 710 713 706 702 704 713 707 688 661 663 668 679 686 697 712 730
831 825 828 818 815 823 823 822 822 810 805 801 797 794 786 779 769 761 751 756 775 764 754 747 735 723 712 699 695 697 696 700 706 711 696 694 686 657 658 653 663 678 684 697 721
839 834 832 824 829 834 825 817 817 818 818 815 812 809 804 798 788 765 759 772 777 774 780 769 738 729 717 705 696 698 692 689 690 695 699 699 689 663 658 663 660 671 676 691 717
848 846 841 839 836 832 829 821 821 820 821 822 819 813 813 802 785 777 770 771 778 784 790 776 752 734 717 703 692 698 693 691 688 699 699 690 680 668 666 666 666 664 672 687 710
856 853 854 844 845 836 832 829 825 826 828 824 818 817 822 820 807 796 786 790 785 783 782 781 763 742 724 708 698 694 691 681 690 684 689 682 679 670 663 663 665 665 674 686 700
861 862 854 842 842 835 837 838 833 833 836 830 827 827 825 824 817 812 804 799 795 787 779 785 778 756 745 730 717 708 696 684 674 674 673 672 670 662 660 654 658 663 673 683 695
864 864 863 850 837 835 834 833 836 833 832 831 831 829 823 818 820 819 816 813 808 801 795 793 780 761 754 735 720 714 697 685 676 667 671 675 665 660 661 658 662 666 673 680 691